| time (UTC) | temp F | wind direction | speed MPH | gust MPH | rain 1hr in | rain 24hr in | rain mn in | humidity % | barometer mb |
| 20260510050055 | 53 | 0 | 0.0 | 0.0 | 0.00 | 0.00 | 0.00 | 72 | 1019.7 |
| 20260510045554 | 53 | 0 | 0.0 | 1.0 | 0.00 | 0.00 | 0.00 | 73 | 1019.7 |
| 20260510045052 | 53 | 0 | 0.0 | 1.0 | 0.00 | 0.00 | 0.00 | 72 | 1019.7 |
| 20260510044627 | 53 | 0 | 0.0 | 1.0 | 0.00 | 0.00 | 0.00 | 72 | 1019.7 |
| 20260510044049 | 53 | 0 | 0.0 | 1.0 | 0.00 | 0.00 | 0.00 | 72 | 1019.8 |
| 20260510043551 | 53 | 0 | 0.0 | 1.0 | 0.00 | 0.00 | 0.00 | 73 | 1019.8 |
| 20260510043051 | 53 | 115 | 0.0 | 2.0 | 0.00 | 0.00 | 0.00 | 73 | 1019.9 |
| 20260510042555 | 53 | 0 | 0.0 | 2.0 | 0.00 | 0.00 | 0.00 | 73 | 1019.8 |
| 20260510042051 | 53 | 0 | 0.0 | 1.0 | 0.00 | 0.00 | 0.00 | 73 | 1019.8 |
| 20260510041553 | 53 | 0 | 0.0 | 1.0 | 0.00 | 0.00 | 0.00 | 72 | 1019.8 |
| 20260510041055 | 53 | 0 | 0.0 | 2.0 | 0.00 | 0.00 | 0.00 | 71 | 1019.8 |
| 20260510040549 | 53 | 0 | 0.0 | 2.0 | 0.00 | 0.00 | 0.00 | 71 | 1019.8 |
| 20260510040054 | 54 | 115 | 0.0 | 2.0 | 0.00 | 0.00 | 0.00 | 71 | 1019.8 |
| 20260510035548 | 54 | 98 | 0.0 | 3.0 | 0.00 | 0.00 | 0.00 | 71 | 1019.7 |
| 20260510035048 | 54 | 0 | 1.0 | 4.0 | 0.00 | 0.00 | 0.00 | 71 | 1019.7 |
| 20260510034554 | 54 | 71 | 1.0 | 4.0 | 0.00 | 0.00 | 0.00 | 71 | 1019.6 |
| 20260510034049 | 54 | 87 | 1.0 | 4.0 | 0.00 | 0.00 | 0.00 | 70 | 1019.5 |
| 20260510033554 | 54 | 0 | 0.0 | 2.0 | 0.00 | 0.00 | 0.00 | 69 | 1019.5 |
| 20260510033054 | 55 | 0 | 0.0 | 3.0 | 0.00 | 0.00 | 0.00 | 68 | 1019.3 |
| 20260510032554 | 55 | 97 | 0.0 | 3.0 | 0.00 | 0.00 | 0.00 | 67 | 1019.2 |
| 20260510032052 | 56 | 105 | 1.0 | 3.0 | 0.00 | 0.00 | 0.00 | 67 | 1019.1 |
| 20260510031550 | 56 | 105 | 0.0 | 4.0 | 0.00 | 0.00 | 0.00 | 66 | 1019.1 |
| 20260510031056 | 56 | 105 | 1.0 | 4.0 | 0.00 | 0.00 | 0.00 | 64 | 1019.1 |
| 20260510030554 | 56 | 82 | 0.0 | 1.0 | 0.00 | 0.00 | 0.00 | 62 | 1019.1 |
| 20260510030056 | 56 | 56 | 0.0 | 1.0 | 0.00 | 0.00 | 0.00 | 60 | 1018.9 |
| 20260510025549 | 57 | 0 | 0.0 | 1.0 | 0.00 | 0.00 | 0.00 | 57 | 1018.7 |
| 20260510025048 | 57 | 0 | 0.0 | 1.0 | 0.00 | 0.00 | 0.00 | 56 | 1018.7 |
| 20260510024556 | 58 | 0 | 0.0 | 2.0 | 0.00 | 0.00 | 0.00 | 56 | 1018.5 |
| 20260510024051 | 58 | 0 | 0.0 | 2.0 | 0.00 | 0.00 | 0.00 | 55 | 1018.4 |
| 20260510023552 | 59 | 0 | 0.0 | 0.0 | 0.00 | 0.00 | 0.00 | 54 | 1018.4 |
| 20260510023102 | 59 | 0 | 0.0 | 0.0 | 0.00 | 0.00 | 0.00 | 51 | 1018.4 |
| 20260510022550 | 59 | 0 | 0.0 | 3.0 | 0.00 | 0.00 | 0.00 | 51 | 1018.6 |
| 20260510022052 | 60 | 0 | 0.0 | 3.0 | 0.00 | 0.00 | 0.00 | 50 | 1018.5 |
| 20260510021557 | 60 | 0 | 1.0 | 3.0 | 0.00 | 0.00 | 0.00 | 49 | 1018.4 |
| 20260510021052 | 60 | 76 | 1.0 | 8.0 | 0.00 | 0.00 | 0.00 | 49 | 1018.4 |
| 20260510020552 | 61 | 0 | 1.0 | 8.0 | 0.00 | 0.00 | 0.00 | 49 | 1018.3 |
| 20260510020059 | 61 | 82 | 3.0 | 8.0 | 0.00 | 0.00 | 0.00 | 47 | 1018.2 |
| 20260510015553 | 61 | 57 | 2.0 | 7.0 | 0.00 | 0.00 | 0.00 | 47 | 1018.2 |
| 20260510015050 | 62 | 72 | 3.0 | 7.0 | 0.00 | 0.00 | 0.00 | 47 | 1018.2 |
| 20260510014557 | 62 | 60 | 2.0 | 7.0 | 0.00 | 0.00 | 0.00 | 47 | 1018.1 |
| 20260510014052 | 62 | 42 | 1.0 | 6.0 | 0.00 | 0.00 | 0.00 | 48 | 1018.1 |
| 20260510013549 | 62 | 21 | 1.0 | 6.0 | 0.00 | 0.00 | 0.00 | 49 | 1018.1 |
| 20260510013056 | 62 | 46 | 2.0 | 8.0 | 0.00 | 0.00 | 0.00 | 49 | 1018.0 |
| 20260510012549 | 62 | 77 | 3.0 | 8.0 | 0.00 | 0.00 | 0.00 | 48 | 1017.9 |
| 20260510012053 | 63 | 74 | 4.0 | 8.0 | 0.00 | 0.00 | 0.00 | 49 | 1017.9 |
| 20260510011559 | 63 | 59 | 2.0 | 7.0 | 0.00 | 0.00 | 0.00 | 48 | 1018.0 |
| 20260510011052 | 63 | 51 | 1.0 | 9.0 | 0.00 | 0.00 | 0.00 | 46 | 1018.0 |
| 20260510010552 | 62 | 0 | 2.0 | 9.0 | 0.00 | 0.00 | 0.00 | 45 | 1018.0 |
| 20260510010123 | 62 | 46 | 3.0 | 6.0 | 0.00 | 0.00 | 0.00 | 47 | 1018.0 |
| 20260510005553 | 62 | 72 | 3.0 | 6.0 | 0.00 | 0.00 | 0.00 | 46 | 1018.0 |
| 20260510005052 | 62 | 48 | 3.0 | 6.0 | 0.00 | 0.00 | 0.00 | 46 | 1018.0 |
| 20260510004554 | 63 | 52 | 2.0 | 8.0 | 0.00 | 0.00 | 0.00 | 46 | 1018.0 |
| 20260510004051 | 63 | 9 | 3.0 | 8.0 | 0.00 | 0.00 | 0.00 | 47 | 1018.1 |
| 20260510003551 | 63 | 0 | 1.0 | 3.0 | 0.00 | 0.00 | 0.00 | 46 | 1018.1 |
| 20260510003058 | 63 | 0 | 1.0 | 3.0 | 0.00 | 0.00 | 0.00 | 45 | 1018.1 |
| 20260510002551 | 63 | 300 | 0.0 | 4.0 | 0.00 | 0.00 | 0.00 | 46 | 1018.1 |
| 20260510002051 | 64 | 0 | 2.0 | 8.0 | 0.00 | 0.00 | 0.00 | 46 | 1018.0 |
| 20260510001553 | 64 | 0 | 1.0 | 8.0 | 0.00 | 0.00 | 0.00 | 45 | 1018.0 |
| 20260510001051 | 64 | 40 | 4.0 | 8.0 | 0.00 | 0.00 | 0.00 | 46 | 1018.0 |
| 20260510000551 | 64 | 65 | 3.0 | 6.0 | 0.00 | 0.00 | 0.00 | 45 | 1018.0 |
| 20260510000054 | 64 | 58 | 1.0 | 3.0 | 0.00 | 0.00 | 0.00 | 50 | 1018.0 |
| 20260509235550 | 63 | 58 | 0.0 | 5.0 | 0.00 | 0.00 | 0.00 | 53 | 1018.0 |
| 20260509235052 | 62 | 52 | 1.0 | 5.0 | 0.00 | 0.00 | 0.00 | 51 | 1018.0 |
| 20260509234618 | 61 | 0 | 0.0 | 4.0 | 0.00 | 0.00 | 0.00 | 54 | 1017.9 |
| 20260509234053 | 61 | 42 | 1.0 | 4.0 | 0.00 | 0.00 | 0.00 | 55 | 1017.8 |
| 20260509233550 | 61 | 26 | 1.0 | 8.0 | 0.00 | 0.00 | 0.00 | 57 | 1017.9 |
| 20260509233056 | 62 | 360 | 2.0 | 17.0 | 0.00 | 0.00 | 0.00 | 57 | 1017.9 |
| 20260509232552 | 63 | 5 | 7.0 | 17.0 | 0.00 | 0.00 | 0.00 | 55 | 1017.9 |
| 20260509232052 | 64 | 325 | 4.0 | 12.0 | 0.00 | 0.00 | 0.00 | 43 | 1017.8 |
| 20260509231553 | 64 | 344 | 3.0 | 12.0 | 0.00 | 0.00 | 0.00 | 43 | 1017.7 |
| 20260509231144 | 65 | 340 | 5.0 | 12.0 | 0.00 | 0.00 | 0.00 | 43 | 1017.6 |
| 20260509230550 | 65 | 304 | 5.0 | 12.0 | 0.00 | 0.00 | 0.00 | 44 | 1017.6 |
| 20260509230056 | 65 | 338 | 5.0 | 12.0 | 0.00 | 0.00 | 0.00 | 46 | 1017.5 |
| 20260509225553 | 64 | 21 | 2.0 | 9.0 | 0.00 | 0.00 | 0.00 | 48 | 1017.5 |
| 20260509225050 | 65 | 14 | 4.0 | 9.0 | 0.00 | 0.00 | 0.00 | 49 | 1017.5 |
| 20260509224553 | 64 | 26 | 4.0 | 9.0 | 0.00 | 0.00 | 0.00 | 48 | 1017.5 |
| 20260509224054 | 65 | 317 | 3.0 | 9.0 | 0.00 | 0.00 | 0.00 | 46 | 1017.5 |
| 20260509223552 | 66 | 5 | 4.0 | 9.0 | 0.00 | 0.00 | 0.00 | 46 | 1017.5 |
| 20260509223100 | 67 | 28 | 4.0 | 11.0 | 0.00 | 0.00 | 0.00 | 47 | 1017.4 |
| 20260509222552 | 67 | 5 | 5.0 | 11.0 | 0.00 | 0.00 | 0.00 | 44 | 1017.4 |
| 20260509222052 | 67 | 310 | 4.0 | 12.0 | 0.00 | 0.00 | 0.00 | 40 | 1017.3 |
| 20260509221552 | 67 | 360 | 5.0 | 12.0 | 0.00 | 0.00 | 0.00 | 40 | 1017.4 |
| 20260509221054 | 67 | 312 | 5.0 | 14.0 | 0.00 | 0.00 | 0.00 | 39 | 1017.3 |
| 20260509220551 | 67 | 309 | 4.0 | 14.0 | 0.00 | 0.00 | 0.00 | 42 | 1017.3 |
| 20260509220057 | 67 | 308 | 3.0 | 11.0 | 0.00 | 0.00 | 0.00 | 41 | 1017.3 |
| 20260509215551 | 66 | 340 | 4.0 | 13.0 | 0.00 | 0.00 | 0.00 | 41 | 1017.3 |
| 20260509215051 | 66 | 313 | 6.0 | 13.0 | 0.00 | 0.00 | 0.00 | 41 | 1017.3 |
| 20260509214553 | 66 | 296 | 6.0 | 13.0 | 0.00 | 0.00 | 0.00 | 42 | 1017.3 |
| 20260509214050 | 66 | 355 | 4.0 | 15.0 | 0.00 | 0.00 | 0.00 | 44 | 1017.3 |
| 20260509213551 | 66 | 5 | 5.0 | 15.0 | 0.00 | 0.00 | 0.00 | 42 | 1017.3 |
| 20260509213055 | 66 | 320 | 4.0 | 11.0 | 0.00 | 0.00 | 0.00 | 43 | 1017.4 |
| 20260509212550 | 66 | 315 | 6.0 | 12.0 | 0.00 | 0.00 | 0.00 | 42 | 1017.5 |
| 20260509212050 | 66 | 312 | 6.0 | 16.0 | 0.00 | 0.00 | 0.00 | 43 | 1017.5 |
| 20260509211555 | 65 | 320 | 6.0 | 16.0 | 0.00 | 0.00 | 0.00 | 45 | 1017.5 |
| 20260509211055 | 65 | 323 | 8.0 | 13.0 | 0.00 | 0.00 | 0.00 | 44 | 1017.5 |
| 20260509210550 | 65 | 342 | 6.0 | 13.0 | 0.00 | 0.00 | 0.00 | 46 | 1017.4 |
| 20260509210053 | 65 | 315 | 7.0 | 13.0 | 0.00 | 0.00 | 0.00 | 45 | 1017.6 |
| 20260509205549 | 65 | 350 | 8.0 | 16.0 | 0.00 | 0.00 | 0.00 | 46 | 1017.5 |
| 20260509205054 | 64 | 327 | 9.0 | 16.0 | 0.00 | 0.00 | 0.00 | 46 | 1017.4 |
| 20260509204558 | 64 | 350 | 5.0 | 18.0 | 0.00 | 0.00 | 0.00 | 46 | 1017.4 |
| 20260509204052 | 63 | 322 | 8.0 | 18.0 | 0.00 | 0.00 | 0.00 | 47 | 1017.4 |
| 20260509203550 | 63 | 337 | 8.0 | 18.0 | 0.00 | 0.00 | 0.00 | 46 | 1017.4 |
| 20260509203124 | 63 | 355 | 10.0 | 18.0 | 0.00 | 0.00 | 0.00 | 45 | 1017.4 |
| 20260509202550 | 63 | 319 | 10.0 | 17.0 | 0.00 | 0.00 | 0.00 | 46 | 1017.3 |
| 20260509202054 | 63 | 352 | 9.0 | 16.0 | 0.00 | 0.00 | 0.00 | 46 | 1017.3 |
| 20260509201604 | 64 | 329 | 10.0 | 18.0 | 0.00 | 0.00 | 0.00 | 46 | 1017.2 |
| 20260509201050 | 63 | 333 | 9.0 | 18.0 | 0.00 | 0.00 | 0.00 | 48 | 1017.4 |
| 20260509200553 | 63 | 300 | 9.0 | 18.0 | 0.00 | 0.00 | 0.00 | 49 | 1017.3 |
| 20260509195553 | 63 | 326 | 6.0 | 18.0 | 0.00 | 0.00 | 0.00 | 52 | 1017.3 |
| 20260509195053 | 62 | 303 | 8.0 | 14.0 | 0.00 | 0.00 | 0.00 | 51 | 1017.4 |
| 20260509194551 | 63 | 252 | 7.0 | 17.0 | 0.00 | 0.00 | 0.00 | 50 | 1017.4 |
| 20260509194050 | 62 | 350 | 8.0 | 17.0 | 0.00 | 0.00 | 0.00 | 50 | 1017.4 |
| 20260509193549 | 62 | 276 | 10.0 | 17.0 | 0.00 | 0.00 | 0.00 | 48 | 1017.4 |
| 20260509193116 | 63 | 311 | 9.0 | 17.0 | 0.00 | 0.00 | 0.00 | 49 | 1017.4 |
| 20260509192551 | 62 | 293 | 5.0 | 13.0 | 0.00 | 0.00 | 0.00 | 53 | 1017.3 |
| 20260509192051 | 62 | 290 | 6.0 | 13.0 | 0.00 | 0.00 | 0.00 | 55 | 1017.3 |
| 20260509191558 | 61 | 329 | 4.0 | 13.0 | 0.00 | 0.00 | 0.00 | 59 | 1017.3 |
| 20260509191052 | 59 | 340 | 5.0 | 13.0 | 0.00 | 0.00 | 0.00 | 58 | 1017.4 |
| 20260509190548 | 58 | 323 | 6.0 | 12.0 | 0.00 | 0.00 | 0.00 | 60 | 1017.5 |
| 20260509190056 | 56 | 345 | 5.0 | 12.0 | 0.00 | 0.00 | 0.00 | 65 | 1017.6 |
| 20260509185553 | 55 | 298 | 3.0 | 10.0 | 0.00 | 0.00 | 0.00 | 71 | 1017.6 |
| 20260509185049 | 55 | 319 | 2.0 | 12.0 | 0.00 | 0.00 | 0.00 | 73 | 1017.6 |
| 20260509184552 | 55 | 360 | 2.0 | 12.0 | 0.00 | 0.00 | 0.00 | 70 | 1017.5 |
| 20260509184048 | 57 | 302 | 6.0 | 18.0 | 0.00 | 0.00 | 0.00 | 66 | 1017.8 |
| 20260509183555 | 59 | 10 | 9.0 | 18.0 | 0.00 | 0.00 | 0.00 | 58 | 1017.9 |
| 20260509183059 | 61 | 355 | 4.0 | 10.0 | 0.00 | 0.00 | 0.00 | 55 | 1017.7 |
| 20260509182553 | 61 | 352 | 2.0 | 10.0 | 0.00 | 0.00 | 0.00 | 55 | 1017.4 |
| 20260509182054 | 61 | 346 | 3.0 | 10.0 | 0.00 | 0.00 | 0.00 | 57 | 1017.4 |
| 20260509181559 | 61 | 340 | 4.0 | 8.0 | 0.00 | 0.00 | 0.00 | 57 | 1017.5 |
| 20260509181050 | 60 | 326 | 2.0 | 7.0 | 0.00 | 0.00 | 0.00 | 56 | 1017.6 |
| 20260509180558 | 59 | 285 | 3.0 | 10.0 | 0.00 | 0.00 | 0.00 | 57 | 1017.6 |
| 20260509180104 | 59 | 275 | 3.0 | 10.0 | 0.00 | 0.00 | 0.00 | 56 | 1017.6 |
| 20260509175553 | 59 | 306 | 3.0 | 10.0 | 0.00 | 0.00 | 0.00 | 60 | 1017.6 |
| 20260509175051 | 60 | 333 | 1.0 | 9.0 | 0.00 | 0.00 | 0.00 | 58 | 1017.5 |
| 20260509174550 | 60 | 294 | 3.0 | 9.0 | 0.00 | 0.00 | 0.00 | 55 | 1017.4 |
| 20260509174053 | 60 | 328 | 3.0 | 11.0 | 0.00 | 0.00 | 0.00 | 56 | 1017.4 |
| 20260509173552 | 60 | 346 | 4.0 | 11.0 | 0.00 | 0.00 | 0.00 | 52 | 1017.3 |
| 20260509173101 | 60 | 315 | 4.0 | 10.0 | 0.00 | 0.00 | 0.00 | 58 | 1017.3 |
| 20260509172550 | 59 | 340 | 1.0 | 12.0 | 0.00 | 0.00 | 0.00 | 57 | 1017.3 |
| 20260509172053 | 60 | 348 | 5.0 | 12.0 | 0.00 | 0.00 | 0.00 | 56 | 1017.4 |
| 20260509171559 | 60 | 330 | 4.0 | 12.0 | 0.00 | 0.00 | 0.00 | 59 | 1017.3 |
| 20260509171051 | 60 | 14 | 3.0 | 8.0 | 0.00 | 0.00 | 0.00 | 57 | 1017.2 |
| 20260509170552 | 60 | 327 | 2.0 | 8.0 | 0.00 | 0.00 | 0.00 | 58 | 1017.2 |
| 20260509170058 | 59 | 352 | 2.0 | 8.0 | 0.00 | 0.00 | 0.00 | 58 | 1017.1 |
| 20260509165551 | 59 | 11 | 2.0 | 8.0 | 0.00 | 0.00 | 0.00 | 61 | 1017.1 |
| 20260509165050 | 58 | 340 | 2.0 | 9.0 | 0.00 | 0.00 | 0.00 | 59 | 1017.1 |
| 20260509164602 | 58 | 346 | 3.0 | 9.0 | 0.00 | 0.00 | 0.00 | 60 | 1017.1 |
| 20260509164050 | 58 | 22 | 3.0 | 9.0 | 0.00 | 0.00 | 0.00 | 60 | 1017.0 |
| 20260509163555 | 58 | 336 | 4.0 | 11.0 | 0.00 | 0.00 | 0.00 | 61 | 1017.0 |
| 20260509163057 | 59 | 310 | 3.0 | 11.0 | 0.00 | 0.00 | 0.00 | 60 | 1017.1 |
| 20260509162551 | 59 | 355 | 2.0 | 7.0 | 0.00 | 0.00 | 0.00 | 61 | 1017.0 |
| 20260509162052 | 58 | 343 | 2.0 | 9.0 | 0.00 | 0.00 | 0.00 | 63 | 1017.0 |
| 20260509161558 | 58 | 341 | 2.0 | 9.0 | 0.00 | 0.00 | 0.00 | 62 | 1017.0 |
| 20260509161050 | 58 | 317 | 3.0 | 7.0 | 0.00 | 0.00 | 0.00 | 63 | 1017.0 |
| 20260509160551 | 57 | 311 | 2.0 | 8.0 | 0.00 | 0.00 | 0.00 | 62 | 1016.9 |
| 20260509160054 | 57 | 319 | 2.0 | 9.0 | 0.00 | 0.00 | 0.00 | 65 | 1017.0 |
| 20260509155550 | 58 | 323 | 4.0 | 9.0 | 0.00 | 0.00 | 0.00 | 62 | 1016.8 |
| 20260509155052 | 58 | 289 | 2.0 | 6.0 | 0.00 | 0.00 | 0.00 | 61 | 1016.8 |
| 20260509154554 | 58 | 19 | 2.0 | 6.0 | 0.00 | 0.00 | 0.00 | 60 | 1016.7 |
| 20260509154052 | 57 | 311 | 2.0 | 6.0 | 0.00 | 0.00 | 0.00 | 59 | 1016.7 |
| 20260509153552 | 57 | 294 | 1.0 | 6.0 | 0.00 | 0.00 | 0.00 | 59 | 1016.6 |
| 20260509153057 | 57 | 5 | 2.0 | 8.0 | 0.00 | 0.00 | 0.00 | 60 | 1016.6 |
| 20260509152552 | 57 | 329 | 3.0 | 8.0 | 0.00 | 0.00 | 0.00 | 60 | 1016.5 |
| 20260509152052 | 57 | 347 | 3.0 | 8.0 | 0.00 | 0.00 | 0.00 | 60 | 1016.5 |
| 20260509151609 | 57 | 308 | 2.0 | 6.0 | 0.00 | 0.00 | 0.00 | 60 | 1016.5 |
| 20260509151051 | 57 | 309 | 2.0 | 8.0 | 0.00 | 0.00 | 0.00 | 60 | 1016.4 |
| 20260509150550 | 57 | 294 | 3.0 | 8.0 | 0.00 | 0.00 | 0.00 | 60 | 1016.3 |
| 20260509150054 | 57 | 270 | 2.0 | 7.0 | 0.00 | 0.00 | 0.00 | 60 | 1016.4 |
| 20260509145551 | 57 | 304 | 1.0 | 7.0 | 0.00 | 0.00 | 0.00 | 60 | 1016.3 |
| 20260509145050 | 57 | 284 | 2.0 | 7.0 | 0.00 | 0.00 | 0.00 | 60 | 1016.2 |
| 20260509144554 | 57 | 270 | 2.0 | 6.0 | 0.00 | 0.00 | 0.00 | 60 | 1016.2 |
| 20260509144051 | 57 | 327 | 2.0 | 8.0 | 0.00 | 0.00 | 0.00 | 60 | 1016.2 |
| 20260509143555 | 56 | 297 | 2.0 | 8.0 | 0.00 | 0.00 | 0.00 | 61 | 1016.0 |
| 20260509143053 | 56 | 308 | 3.0 | 8.0 | 0.00 | 0.00 | 0.00 | 63 | 1016.0 |
| 20260509142551 | 55 | 0 | 1.0 | 6.0 | 0.00 | 0.00 | 0.00 | 65 | 1016.0 |
| 20260509142051 | 54 | 0 | 1.0 | 6.0 | 0.00 | 0.00 | 0.00 | 65 | 1016.0 |
| 20260509141554 | 54 | 0 | 1.0 | 4.0 | 0.00 | 0.00 | 0.00 | 66 | 1015.9 |
| 20260509141052 | 53 | 0 | 1.0 | 4.0 | 0.00 | 0.00 | 0.00 | 66 | 1015.9 |
| 20260509140552 | 53 | 286 | 0.0 | 4.0 | 0.00 | 0.00 | 0.00 | 67 | 1015.9 |
| 20260509140057 | 53 | 0 | 1.0 | 4.0 | 0.00 | 0.00 | 0.00 | 67 | 1015.9 |
| 20260509135553 | 52 | 296 | 2.0 | 4.0 | 0.00 | 0.00 | 0.00 | 68 | 1015.8 |
| 20260509135053 | 52 | 0 | 1.0 | 3.0 | 0.00 | 0.00 | 0.00 | 69 | 1015.7 |
| 20260509134555 | 52 | 0 | 0.0 | 3.0 | 0.00 | 0.00 | 0.00 | 68 | 1015.8 |
| 20260509134052 | 52 | 293 | 0.0 | 3.0 | 0.00 | 0.00 | 0.00 | 67 | 1015.7 |
| 20260509133551 | 52 | 0 | 0.0 | 3.0 | 0.00 | 0.00 | 0.00 | 67 | 1015.8 |
| 20260509133103 | 52 | 0 | 0.0 | 4.0 | 0.00 | 0.00 | 0.00 | 67 | 1015.6 |
| 20260509132551 | 52 | 0 | 0.0 | 5.0 | 0.00 | 0.00 | 0.00 | 67 | 1015.5 |
| 20260509132051 | 52 | 0 | 0.0 | 5.0 | 0.00 | 0.00 | 0.00 | 67 | 1015.3 |
| 20260509131552 | 52 | 313 | 2.0 | 5.0 | 0.00 | 0.00 | 0.00 | 67 | 1015.3 |
| 20260509131051 | 52 | 304 | 2.0 | 7.0 | 0.00 | 0.00 | 0.00 | 68 | 1015.2 |
| 20260509130551 | 52 | 325 | 2.0 | 8.0 | 0.00 | 0.00 | 0.00 | 68 | 1015.2 |
| 20260509125550 | 52 | 306 | 2.0 | 6.0 | 0.00 | 0.00 | 0.00 | 68 | 1014.9 |
| 20260509125050 | 52 | 344 | 1.0 | 5.0 | 0.00 | 0.00 | 0.00 | 68 | 1014.8 |
| 20260509124552 | 52 | 328 | 2.0 | 8.0 | 0.00 | 0.00 | 0.00 | 68 | 1014.8 |
| 20260509124053 | 53 | 328 | 3.0 | 9.0 | 0.00 | 0.00 | 0.00 | 68 | 1014.6 |
| 20260509123551 | 53 | 317 | 3.0 | 9.0 | 0.00 | 0.00 | 0.00 | 67 | 1014.5 |
| 20260509123053 | 53 | 280 | 3.0 | 9.0 | 0.00 | 0.00 | 0.00 | 67 | 1014.4 |
| 20260509122552 | 53 | 306 | 2.0 | 10.0 | 0.00 | 0.00 | 0.00 | 66 | 1014.4 |
| 20260509122052 | 53 | 311 | 3.0 | 10.0 | 0.00 | 0.00 | 0.00 | 66 | 1014.3 |
| 20260509121555 | 53 | 317 | 3.0 | 9.0 | 0.00 | 0.00 | 0.00 | 66 | 1014.2 |
| 20260509121051 | 53 | 311 | 3.0 | 9.0 | 0.00 | 0.00 | 0.00 | 66 | 1013.9 |
| 20260509120551 | 53 | 314 | 4.0 | 9.0 | 0.00 | 0.00 | 0.00 | 66 | 1013.9 |
| 20260509120058 | 53 | 303 | 4.0 | 10.0 | 0.00 | 0.00 | 0.00 | 66 | 1013.8 |
| 20260509115550 | 54 | 318 | 5.0 | 10.0 | 0.00 | 0.00 | 0.00 | 65 | 1013.7 |
| 20260509115050 | 54 | 293 | 4.0 | 12.0 | 0.00 | 0.00 | 0.00 | 65 | 1013.7 |
| 20260509114553 | 54 | 271 | 5.0 | 12.0 | 0.00 | 0.00 | 0.00 | 65 | 1013.7 |
| 20260509114053 | 54 | 319 | 4.0 | 10.0 | 0.00 | 0.00 | 0.00 | 65 | 1013.5 |
| 20260509113551 | 54 | 277 | 5.0 | 10.0 | 0.00 | 0.00 | 0.00 | 65 | 1013.5 |
| 20260509113052 | 54 | 317 | 4.0 | 10.0 | 0.00 | 0.00 | 0.00 | 65 | 1013.5 |
| 20260509112550 | 54 | 325 | 4.0 | 10.0 | 0.00 | 0.00 | 0.00 | 65 | 1013.3 |
| 20260509112050 | 54 | 342 | 4.0 | 9.0 | 0.00 | 0.00 | 0.00 | 64 | 1013.2 |
| 20260509111556 | 55 | 313 | 5.0 | 10.0 | 0.00 | 0.00 | 0.00 | 64 | 1013.0 |
| 20260509111051 | 55 | 337 | 4.0 | 11.0 | 0.00 | 0.00 | 0.00 | 64 | 1013.0 |
| 20260509110553 | 55 | 313 | 6.0 | 11.0 | 0.00 | 0.00 | 0.00 | 63 | 1012.9 |
| 20260509110053 | 55 | 301 | 4.0 | 10.0 | 0.00 | 0.00 | 0.00 | 63 | 1012.8 |
| 20260509105552 | 55 | 304 | 5.0 | 10.0 | 0.00 | 0.00 | 0.00 | 62 | 1012.8 |
| 20260509105051 | 55 | 296 | 5.0 | 11.0 | 0.00 | 0.00 | 0.00 | 62 | 1012.7 |
| 20260509104552 | 55 | 318 | 3.0 | 11.0 | 0.00 | 0.00 | 0.00 | 62 | 1012.7 |
| 20260509104050 | 55 | 300 | 5.0 | 11.0 | 0.00 | 0.00 | 0.00 | 61 | 1012.7 |
| 20260509103552 | 55 | 350 | 5.0 | 9.0 | 0.00 | 0.00 | 0.00 | 61 | 1012.7 |
| 20260509103054 | 56 | 346 | 4.0 | 10.0 | 0.00 | 0.00 | 0.00 | 60 | 1012.7 |
| 20260509102551 | 56 | 308 | 4.0 | 11.0 | 0.00 | 0.00 | 0.00 | 60 | 1012.6 |
| 20260509102054 | 56 | 306 | 3.0 | 11.0 | 0.00 | 0.00 | 0.00 | 59 | 1012.5 |
| 20260509101553 | 56 | 273 | 1.0 | 6.0 | 0.00 | 0.00 | 0.00 | 59 | 1012.4 |
| 20260509101052 | 56 | 278 | 1.0 | 6.0 | 0.00 | 0.00 | 0.00 | 59 | 1012.4 |
| 20260509100550 | 55 | 274 | 0.0 | 2.0 | 0.00 | 0.00 | 0.00 | 59 | 1012.4 |
| 20260509100056 | 55 | 0 | 0.0 | 3.0 | 0.00 | 0.00 | 0.00 | 59 | 1012.4 |
| 20260509095551 | 55 | 0 | 1.0 | 3.0 | 0.00 | 0.00 | 0.00 | 60 | 1012.3 |
| 20260509095053 | 55 | 0 | 0.0 | 3.0 | 0.00 | 0.00 | 0.00 | 60 | 1012.3 |
| 20260509094554 | 55 | 0 | 0.0 | 3.0 | 0.00 | 0.00 | 0.00 | 59 | 1012.3 |
| 20260509094053 | 55 | 304 | 0.0 | 3.0 | 0.00 | 0.00 | 0.00 | 59 | 1012.3 |
| 20260509093552 | 55 | 329 | 0.0 | 3.0 | 0.00 | 0.00 | 0.00 | 59 | 1012.3 |
| 20260509093058 | 55 | 0 | 0.0 | 0.0 | 0.00 | 0.00 | 0.00 | 59 | 1012.3 |
| 20260509092552 | 56 | 0 | 0.0 | 3.0 | 0.00 | 0.00 | 0.00 | 60 | 1012.2 |
| 20260509092052 | 56 | 0 | 0.0 | 3.0 | 0.00 | 0.00 | 0.00 | 60 | 1012.2 |
| 20260509091600 | 56 | 0 | 0.0 | 3.0 | 0.00 | 0.00 | 0.00 | 59 | 1012.3 |
| 20260509091051 | 57 | 0 | 0.0 | 1.0 | 0.00 | 0.00 | 0.00 | 59 | 1012.1 |
| 20260509090553 | 57 | 0 | 0.0 | 2.0 | 0.00 | 0.00 | 0.00 | 58 | 1012.0 |
| 20260509090059 | 58 | 0 | 0.0 | 3.0 | 0.00 | 0.00 | 0.00 | 57 | 1011.9 |
| 20260509085555 | 58 | 0 | 1.0 | 7.0 | 0.00 | 0.00 | 0.00 | 56 | 1011.9 |
| 20260509085056 | 58 | 0 | 1.0 | 7.0 | 0.00 | 0.00 | 0.00 | 56 | 1011.9 |
| 20260509084555 | 58 | 309 | 1.0 | 5.0 | 0.00 | 0.00 | 0.00 | 56 | 1011.9 |
| 20260509084051 | 59 | 315 | 2.0 | 5.0 | 0.00 | 0.00 | 0.00 | 54 | 1011.7 |
| 20260509083550 | 59 | 26 | 3.0 | 6.0 | 0.00 | 0.00 | 0.00 | 54 | 1011.7 |
| 20260509083111 | 59 | 355 | 2.0 | 7.0 | 0.00 | 0.00 | 0.00 | 55 | 1011.6 |
| 20260509082550 | 60 | 355 | 3.0 | 11.0 | 0.00 | 0.00 | 0.00 | 54 | 1011.7 |
| 20260509082050 | 60 | 5 | 2.0 | 11.0 | 0.00 | 0.00 | 0.00 | 52 | 1011.6 |
| 20260509081604 | 60 | 5 | 3.0 | 8.0 | 0.00 | 0.00 | 0.00 | 51 | 1011.6 |
| 20260509081050 | 60 | 346 | 1.0 | 9.0 | 0.00 | 0.00 | 0.00 | 49 | 1011.6 |
| 20260509080553 | 61 | 346 | 2.0 | 9.0 | 0.00 | 0.00 | 0.00 | 49 | 1011.5 |
| 20260509080108 | 61 | 292 | 4.0 | 9.0 | 0.00 | 0.00 | 0.00 | 48 | 1011.4 |
| 20260509075552 | 61 | 319 | 4.0 | 14.0 | 0.00 | 0.00 | 0.00 | 47 | 1011.4 |
| 20260509075052 | 62 | 321 | 6.0 | 16.0 | 0.00 | 0.00 | 0.00 | 46 | 1011.3 |
| 20260509074557 | 62 | 247 | 7.0 | 16.0 | 0.00 | 0.00 | 0.00 | 44 | 1011.1 |
| 20260509074051 | 62 | 263 | 10.0 | 15.0 | 0.00 | 0.00 | 0.00 | 44 | 1010.7 |
| 20260509073552 | 62 | 272 | 9.0 | 15.0 | 0.00 | 0.00 | 0.00 | 44 | 1010.5 |
| 20260509073054 | 62 | 257 | 9.0 | 15.0 | 0.00 | 0.00 | 0.00 | 44 | 1010.5 |
| 20260509072551 | 62 | 306 | 7.0 | 19.0 | 0.00 | 0.00 | 0.00 | 44 | 1010.5 |
| 20260509072052 | 62 | 304 | 8.0 | 21.0 | 0.00 | 0.00 | 0.00 | 44 | 1010.5 |
| 20260509071609 | 62 | 281 | 8.0 | 21.0 | 0.00 | 0.00 | 0.00 | 43 | 1010.5 |
| 20260509071052 | 63 | 273 | 9.0 | 21.0 | 0.00 | 0.00 | 0.00 | 43 | 1010.5 |
| 20260509070553 | 63 | 275 | 7.0 | 16.0 | 0.00 | 0.00 | 0.00 | 42 | 1010.5 |
| 20260509070105 | 63 | 259 | 7.0 | 16.0 | 0.00 | 0.00 | 0.00 | 42 | 1010.3 |
| 20260509065552 | 63 | 300 | 8.0 | 14.0 | 0.00 | 0.00 | 0.00 | 42 | 1010.3 |
| 20260509065049 | 63 | 360 | 7.0 | 17.0 | 0.00 | 0.00 | 0.00 | 43 | 1010.2 |
| 20260509064556 | 63 | 266 | 8.0 | 17.0 | 0.00 | 0.00 | 0.00 | 43 | 1010.2 |
| 20260509064054 | 63 | 299 | 10.0 | 17.0 | 0.00 | 0.00 | 0.00 | 43 | 1010.2 |
| 20260509063555 | 63 | 278 | 7.0 | 17.0 | 0.00 | 0.00 | 0.00 | 42 | 1010.3 |
| 20260509063058 | 64 | 287 | 6.0 | 17.0 | 0.00 | 0.00 | 0.00 | 41 | 1010.3 |
| 20260509062549 | 64 | 287 | 7.0 | 18.0 | 0.00 | 0.00 | 0.00 | 39 | 1010.2 |
| 20260509062051 | 64 | 250 | 10.0 | 18.0 | 0.00 | 0.00 | 0.00 | 39 | 1010.0 |
| 20260509061613 | 64 | 287 | 9.0 | 16.0 | 0.00 | 0.00 | 0.00 | 39 | 1010.0 |
| 20260509061053 | 64 | 264 | 9.0 | 14.0 | 0.00 | 0.00 | 0.00 | 39 | 1009.8 |
| 20260509060553 | 64 | 255 | 9.0 | 16.0 | 0.00 | 0.00 | 0.00 | 39 | 1009.6 |
| 20260509060113 | 64 | 263 | 10.0 | 16.0 | 0.00 | 0.00 | 0.00 | 38 | 1009.6 |
| 20260509055553 | 65 | 230 | 10.0 | 16.0 | 0.00 | 0.00 | 0.00 | 37 | 1009.6 |
| 20260509055053 | 65 | 261 | 10.0 | 15.0 | 0.00 | 0.00 | 0.00 | 38 | 1009.6 |
| 20260509054554 | 64 | 246 | 10.0 | 15.0 | 0.00 | 0.00 | 0.00 | 37 | 1009.7 |
| 20260509054052 | 64 | 273 | 10.0 | 15.0 | 0.00 | 0.00 | 0.00 | 38 | 1009.6 |
| 20260509053553 | 64 | 254 | 8.0 | 15.0 | 0.00 | 0.00 | 0.00 | 36 | 1009.6 |
| 20260509053053 | 65 | 258 | 10.0 | 15.0 | 0.00 | 0.00 | 0.00 | 35 | 1009.5 |
| 20260509052551 | 65 | 262 | 3.0 | 8.0 | 0.00 | 0.00 | 0.00 | 35 | 1009.5 |
| 20260509052052 | 65 | 275 | 4.0 | 8.0 | 0.00 | 0.00 | 0.00 | 35 | 1009.2 |
| 20260509051558 | 65 | 288 | 3.0 | 12.0 | 0.00 | 0.00 | 0.00 | 35 | 1009.2 |
| 20260509051053 | 65 | 308 | 3.0 | 12.0 | 0.00 | 0.00 | 0.00 | 34 | 1009.2 |
| 20260509050553 | 65 | 313 | 3.0 | 10.0 | 0.00 | 0.00 | 0.00 | 33 | 1009.2 |
| 20260509050123 | 66 | 309 | 4.0 | 13.0 | 0.00 | 0.00 | 0.00 | 32 | 1009.2 |